Simultaneous Nadir Overpasses (SNOs) Predictions

Prediction of SNOs between METOP-B and NOAA-19 Satellite Orbit:

Table of predicted SNOs for the next 14.0 days since TLE Epoch: 4/27/2017
Index Date (METOP-B) Time (METOP-B) Lat,Lon (METOP-B) SZA (METOP-B ) Date (NOAA-19) Time (NOAA-19) Lat,Lon (NOAA-19) SZA (NOAA-19 ) Distance(km) Time Diff (sec)
1 05/02/2017 14:04:25 77.16, -26.46 61.61 05/02/2017 14:03:11 77.15, -26.95 61.58 12.21 74
2 05/02/2017 14:55:09 -77.08, 140.49 118.50 05/02/2017 14:54:13 -77.08, 140.62 118.50 3.14 56
3 05/02/2017 15:45:48 77.10, -52.06 61.52 05/02/2017 15:45:11 77.09, -52.14 61.50 2.74 37
4 05/02/2017 16:36:31 -77.06, 115.08 118.54 05/02/2017 16:36:14 -77.05, 115.23 118.54 3.95 17
5 05/02/2017 17:27:10 77.08, -77.48 61.48 05/02/2017 17:27:12 77.06, -77.53 61.46 2.85 2
6 05/02/2017 18:17:52 -77.04, 89.66 118.58 05/02/2017 18:18:15 -77.07, 89.66 118.55 3.54 23
7 05/02/2017 19:08:31 77.06,-102.90 61.44 05/02/2017 19:09:12 77.03,-102.92 61.41 3.38 41
8 05/02/2017 19:59:14 -77.02, 64.24 118.63 05/02/2017 20:00:16 -77.04, 64.28 118.60 2.87 62
9 05/02/2017 20:49:59 76.78,-129.38 61.11 05/02/2017 20:51:08 76.80,-127.38 61.18 50.79 69




NCC Satellite Simultaneous Nadir Overpasses (SNOs) Prediction Service
